Location: 相模原市立博物館
(35.5593°N, 139.3931°E)
Time: 13:29:18
(UTC+09:00)

ISS - Visible Passes

Search period start: 25 September 2017 00:00
Search period end: 05 October 2017 00:00
Orbit: 401 x 407 km, 51.6° (Epoch: 25 September)

Date Brightness Start Highest point End Pass type
(mag) Time Alt. Az. Time Alt. Az. Time Alt. Az.
25 Sep -3.8 18:59:13 10° SW 19:02:28 77° NW 19:03:17 47° NE visible
26 Sep -3.5 18:07:02 10° SSW 18:10:10 47° SE 18:13:19 10° ENE visible
26 Sep -1.1 19:44:28 10° WNW 19:46:24 18° NW 19:46:24 18° NW visible
27 Sep -2.0 18:51:20 10° W 18:54:16 30° NW 18:56:37 14° NNE visible
28 Sep -3.2 17:58:36 10° WSW 18:01:49 59° NW 18:05:03 10° NE visible
28 Sep -0.7 19:38:18 10° NNW 19:38:52 10° NNW 19:39:19 10° NNW visible
29 Sep -1.0 18:44:08 10° WNW 18:46:11 15° NNW 18:48:15 10° N visible
30 Sep -1.7 17:50:49 10° W 17:53:34 25° NNW 17:56:21 10° NNE visible
